www.pogodaiklimat.ru

Погода и климат >> Архив погоды >> Норвегия >> Myken


ПОГОДА в Myken

  • Прогноз погоды в Myken
  • Монитор погоды в Myken
  • Климат города

АРХИВ ПОГОДЫ в Myken

Время (UTC), дата Ветер
(напр.,м/с)
 
Видим.   Явления Облачность Т
(С)
Тd
(С)
f
(%)
Тe
(С)
Тes
(С)
Комфортность P
(гПа)
Po
(гПа)
Тmin
(С)
Tmax
(С)
R
(мм)
R24
(мм)
S
(см)
19 12.08 ЮЗ 9-12
{13}
н/о н/о +12.3 +8.2 76 +9 +9 1001.2 999.2
20 12.08 ЮЗ 8-12
{12}
н/о н/о +11.9 +8.0 77 +9 +9 1001.2 999.2 0.1
21 12.08 ЮЗ 7-10
{10}
20 км {ливн. осадки} 8/3 300 м
[Cb calv Ac cuf]
+11.6 +7.7 77 +8 +8 1001.1 999.1
22 12.08 ЮЗ 7-10
{10}
н/о н/о +11.3 +8.4 82 +8 +8 1001.0 999.0 0.2
23 12.08 ЮЗ 8-10
{11}
н/о н/о +11.8 +7.9 77 +9 +9 1000.9 998.9 0.2
00 13.08 ЮЗ 8-10
{13}
15 км в посл. час ливневой дождь 9/3 300 м
[Cb calv Ac cuf]
+11.6 +7.1 74 +8 +8 1000.9 998.9
01 13.08 ЮЗ 8-10
{11}
н/о н/о +11.5 +6.8 73 +8 +8 1000.7 998.7
02 13.08 ЮЗ 7-10
{14}
н/о н/о +11.1 +7.8 80 +8 +8 1000.5 998.5
03 13.08 ЮЗ 7-11
{11}
н/о н/о +11.3 +6.7 73 +8 +8 1000.1 998.1
04 13.08 ЮЗ 9-16
{16}
н/о н/о +9.5 +6.1 79 +5 +5 1000.0 998.0 0.6
05 13.08 ЮЗ 10-13
{14}
н/о н/о +11.5 +6.2 70 +8 +8 999.4 997.4 0.1
06 13.08 ЮЗ 10-14
{16}
н/о н/о +11.7 +6.4 70 +8 +8 999.2 997.2 +9.5 +12.8
07 13.08 ЮЗ 9-15
{15}
н/о н/о +10.9 +6.9 76 +7 +7 999.4 997.4
08 13.08 ЮЗ 11-15
{16}
н/о н/о +11.6 +6.9 73 +8 +8 999.2 997.2
09 13.08 ЮЗ 11-16
{16}
20 км 8/3 300 м
[Cb calv Ac cuf]
+11.7 +6.0 68 +8 +8 999.3 997.3
10 13.08 ЮЗ 13-21
{21}
н/о н/о +11.3 +7.8 79 +7 +7 999.2 997.2
11 13.08 ЮЗ 11-16
{18}
н/о н/о +13.3 +7.3 67 +10 +10 999.2 997.2
12 13.08 ЮЗ 11-16
{21}
15 км в посл. час ливневой дождь 8/1 300 м
[Cb cap Ac cuf]
+13.4 +8.1 70 +10 +10 998.9 996.9
13 13.08 ЮЗ 12-17
{18}
н/о н/о +13.2 +7.4 68 +10 +10 998.7 996.7
14 13.08 ЮЗ 12-16
{18}
н/о н/о +12.4 +7.7 73 +9 +9 998.8 996.8
15 13.08 ЮЗ 11-15
{18}
15 км в посл. час ливневой дождь 9/3 300 м
[Cb calv Ac cuf]
+12.2 +8.7 79 +8 +8 998.7 996.7 0.6
16 13.08 ЮЗ 9-14
{17}
н/о н/о +11.7 +9.3 85 +8 +8 999.0 997.0 0.2
17 13.08 ЮЗ 10-14
{16}
н/о н/о +12.0 +7.9 76 +8 +8 998.8 996.8 0.2
18 13.08 ЮЗ 10-15
{18}
15 км в посл. час ливневой дождь 9/3 300 м
[Cb calv Ac cuf Ci fib]
+12.1 +8.2 77 +9 +9 999.2 997.2 +10.7 +13.7
19 13.08 ЮЗ 9-12
{16}
н/о н/о +11.9 +8.9 82 +8 +8 999.6 997.6 0.6
20 13.08 ЮЗ 11-14
{15}
н/о н/о +12.0 +9.0 82 +8 +8 1000.0 998.0 0.1
21 13.08 З 13-16
{16}
15 км в посл. час ливневой дождь 9/3 300 м
[Cb calv Ac cuf]
+11.5 +9.4 87 +7 +7 1000.3 998.3
22 13.08 З 13-16
{16}
н/о н/о +11.8 +8.5 80 +8 +8 1001.1 999.1
23 13.08 З 12-15
{19}
н/о н/о +11.8 +9.4 85 +8 +8 1002.1 1000.1 0.2
00 14.08 З 14-16
{19}
10 км слабый дождь {ливн. осадки} 10/3 300 м
[Frnb As op]
+11.9 +7.6 75 +8 +8 1002.7 1000.7 0.6
01 14.08 З 12-15
{20}
н/о н/о +12.0 +8.5 79 +8 +8 1003.7 1001.7
02 14.08 З 11-14
{18}
н/о н/о +12.2 +6.7 69 +9 +9 1004.6 1002.6
03 14.08 З 13-15
{17}
н/о н/о +11.9 +7.0 72 +8 +8 1005.2 1003.2
04 14.08 З 12-15
{17}
н/о н/о +12.1 +6.0 66 +8 +8 1006.0 1004.0
05 14.08 З 14-18
{18}
н/о н/о +11.3 +7.2 76 +7 +7 1006.6 1004.6
06 14.08 З 12-15
{20}
н/о н/о +11.9 +5.3 64 +8 +8 1007.6 1005.6 +10.7 +12.3
07 14.08 З 10-15
{19}
н/о н/о +10.9 +7.0 77 +7 +7 1008.8 1006.8 0.5
08 14.08 ЮЗ 13-16
{16}
н/о н/о +11.7 +6.2 69 +8 +8 1009.7 1007.7
09 14.08 ЮЗ 12-16
{17}
15 км слабый дождь 10/3 300 м
[Frnb As op]
+12.1 +4.8 61 +8 +8 1010.6 1008.6
10 14.08 ЮЗ 13-15
{16}
н/о н/о +12.1 +5.3 63 +8 +8 1011.6 1009.6
11 14.08 ЮЗ 12-15
{16}
н/о н/о +12.2 +6.1 66 +8 +8 1012.3 1010.3
12 14.08 ЮЗ 13-16
{19}
20 км {ливн. осадки, дождь} 9/3 300 м
[Cb calv Ac cuf]
+12.3 +5.3 62 +8 +8 1013.2 1011.2
13 14.08 ЮЗ 10-14
{16}
н/о н/о +12.6 +7.5 71 +9 +9 1014.0 1012.0
14 14.08 ЮЗ 9-12
{14}
н/о н/о +12.4 +7.1 70 +9 +9 1014.6 1012.6
15 14.08 ЮЗ 12-14
{14}
30 км 9/1 300 м
[Cb calv Ac cuf]
+12.6 +6.9 68 +9 +9 1015.1 1013.1
16 14.08 ЮЗ 10-13
{14}
н/о н/о +12.8 +6.8 67 +10 +10 1015.5 1013.5
17 14.08 ЮЗ 10-12
{13}
н/о н/о +12.3 +7.0 70 +9 +9 1015.9 1013.9
18 14.08 ЮЗ 9-13
{16}
20 км 8/1 300 м
[Cb calv Ac cuf Cc]
+12.3 +7.0 70 +9 +9 1016.4 1014.3 +10.1 +13.0
19 14.08 ЮЗ 9-11
{13}
н/о н/о +12.0 +6.7 70 +9 +9 1016.7 1014.6
20 14.08 ЮЗ 8-11
{12}
н/о н/о +12.0 +7.1 72 +9 +9 1017.1 1015.0
21 14.08 ЮЗ 9-12
{12}
10 км 9/3 300 м
[Cb calv Ac As Cc]
+12.1 +7.8 75 +9 +9 1017.5 1015.4
22 14.08 ЮЗ 8-10
{11}
н/о н/о +11.8 +8.5 80 +8 +8 1017.8 1015.7
23 14.08 ЮЗ 10-13
{13}
н/о н/о +11.8 +8.1 78 +8 +8 1017.8 1015.7
00 15.08 ЮЗ 9-13
{13}
10 км 10/3 300 м
[Cb calv Ac As Cc]
+12.0 +8.1 77 +9 +9 1017.9 1015.8
01 15.08 ЮЗ 8-11
{13}
н/о н/о +11.7 +7.4 75 +8 +8 1017.9 1015.8
02 15.08 ЮЗ 8-10
{11}
н/о н/о +11.8 +8.1 78 +9 +9 1018.0 1015.9
03 15.08 ЮЗ 5-7
{9}
н/о н/о +11.8 +7.7 76 +9 +9 1018.1 1016.0
04 15.08 ЮЗ 5-7
{8}
н/о н/о +11.6 +7.5 76 +9 +9 1018.2 1016.1
05 15.08 ЮЗ 4-6
{8}
н/о н/о +12.3 +7.8 74 +10 +10 1018.3 1016.2
06 15.08 ЮЗ 4 30 км 8/1 300 м
[Cb calv Ac As Ci fib]
+11.9 +8.0 77 +10 +11 1018.5 1016.4 +11.6 +12.4
07 15.08 ЮЗ 4-6
{6}
н/о н/о +12.8 +8.3 74 +11 +11 1018.6 1016.5
08 15.08 ЮЗ 5-6
{6}
н/о н/о +13.2 +8.1 71 +11 +11 1018.5 1016.5
09 15.08 Ю 3-5
{6}
20 км 6/1 300 м
[Cb calv Ac cuf Cc]
+13.9 +8.7 71 +13 +16 1018.4 1016.4
10 15.08 Ю 3-5
{6}
н/о н/о +13.2 +8.3 72 +12 +12 1018.3 1016.3
11 15.08 Ю 6-7
{8}
н/о н/о +14.5 +10.3 76 +13 +13 1018.1 1016.1
12 15.08 Ю 5-6
{8}
50 км 5/1 300 м
[Cb calv Ac cuf Ci fib]
+14.5 +9.1 70 +13 +16 1018.1 1016.1
13 15.08 Ю 2-4
{5}
н/о н/о +14.4 +8.4 67 +14 +14 1017.9 1015.9
14 15.08 В 2-2
{4}
н/о н/о +14.1 +8.9 71 +14 +14 1017.4 1015.4
15 15.08 СВ 3-4
{4}
>70 км 4/1 300 м
[Cu hum Ac As Ci fib]
+14.1 +9.1 72 +13 +16 1016.6 1014.6
16 15.08 СВ 5-6
{6}
н/о н/о +13.5 +9.0 74 +12 +12 1016.2 1014.2
17 15.08 СВ 8-9
{9}
н/о н/о +13.4 +9.1 75 +11 +11 1015.3 1013.3
18 15.08 СВ 9-10
{10}
50 км 4/0
[Ac As Ci fib]
+13.3 +9.9 80 +10 +10 1014.8 1012.8 +11.8 +15.0
19 15.08 СВ 10-11
{11}
н/о н/о +13.3 +10.3 82 +10 +10 1014.1 1012.1
20 15.08 СВ 9-11
{11}
н/о н/о +13.4 +10.8 84 +10 +10 1013.4 1011.4
21 15.08 СВ 9-11
{11}
20 км 8/0
[Ac As]
+13.5 +10.7 83 +11 +11 1012.8 1010.8
22 15.08 СВ 8-10
{10}
н/о н/о +13.5 +11.0 85 +11 +11 1012.3 1010.3
23 15.08 В 6-7
{10}
н/о н/о +13.6 +11.5 87 +11 +11 1012.1 1010.1
00 16.08 В 5-6
{11}
20 км 9/0
[Ac As]
+13.9 +11.6 86 +12 +12 1011.5 1009.5
01 16.08 В 5-5
{6}
н/о н/о +14.5 +11.7 83 +13 +13 1011.2 1009.2
02 16.08 В 6-7
{7}
н/о н/о +14.7 +11.3 80 +13 +13 1010.8 1008.8
03 16.08 ЮВ 9-10
{10}
н/о н/о +15.5 +10.7 73 +13 +13 1010.2 1008.2
04 16.08 ЮВ 6-7
{10}
н/о н/о +15.0 +11.0 77 +13 +13 1009.9 1007.9
05 16.08 ЮВ 6-8
{8}
н/о н/о +15.1 +11.1 77 +13 +13 1009.5 1007.5
06 16.08 ЮВ 6 40 км 9/0
[Ac As]
+14.9 +11.3 79 +13 +13 1009.3 1007.3 +13.1 +15.6
07 16.08 ЮВ 4-6
{7}
н/о н/о +15.2 +11.2 77 +14 +14 1009.1 1007.1
08 16.08 ЮВ 6-9
{9}
н/о н/о +14.8 +11.2 79 +13 +13 1009.2 1007.2
09 16.08 Ю 7-9
{12}
10 км слабый дождь 10/3 300 м
[Frnb As op]
+13.3 +11.9 91 +11 +11 1009.3 1007.3 0.9
10 16.08 Ю 4-6
{9}
н/о н/о +13.3 +12.5 95 +12 +12 1009.1 1007.1 2
11 16.08 ЮВ 4-5
{6}
н/о н/о +13.0 +12.4 96 +11 +11 1008.6 1006.6 4
12 16.08 Ю 4-6
{12}
н/о н/о +12.8 +12.0 95 +11 +11 1008.3 1006.3 3
13 16.08 З 8-10
{10}
н/о н/о +12.7 +11.9 95 +10 +10 1008.4 1006.4 5
14 16.08 З 9-11
{11}
н/о н/о +12.6 +11.2 91 +9 +9 1008.8 1006.8
15 16.08 З 9-11
{13}
10 км слабый дождь 10/3 300 м
[Frnb As op]
+12.6 +10.8 89 +9 +9 1009.5 1007.5 0.1
16 16.08 ЮЗ 8-9
{11}
н/о н/о +12.7 +10.8 88 +10 +10 1010.2 1008.2 0.1
17 16.08 ЮЗ 6-7
{10}
н/о н/о +12.8 +11.7 93 +10 +10 1010.5 1008.5 0.2
18 16.08 ЮЗ 6-9
{13}
15 км {ливн. осадки, дождь} 9/3 300 м
[Cb calv Ac cuf]
+13.1 +11.5 90 +11 +11 1010.7 1008.7 +11.9 +15.4
19 16.08 ЮЗ 7-9
{10}
н/о н/о +12.9 +11.0 88 +10 +10 1010.7 1008.7
20 16.08 ЮЗ 8-11
{11}
н/о н/о +13.1 +11.2 88 +10 +10 1011.2 1009.2
21 16.08 ЮЗ 8-12
{13}
15 км 9/1 300 м
[Cb calv Ac cuf]
+13.1 +10.5 84 +10 +10 1011.5 1009.5
22 16.08 ЮЗ 9-14
{14}
н/о н/о +13.1 +10.6 85 +10 +10 1012.1 1010.1
23 16.08 ЮЗ 7-11
{13}
н/о н/о +13.1 +11.2 88 +10 +10 1012.3 1010.3
00 17.08 ЮЗ 8-12
{14}
15 км {ливн. осадки} 9/3 300 м
[Cb calv Ac cuf]
+12.9 +11.1 89 +10 +10 1012.5 1010.5
01 17.08 ЮЗ 10-14
{14}
н/о н/о +13.0 +10.7 86 +10 +10 1012.5 1010.5 0.1
02 17.08 ЮЗ 10-14
{15}
н/о н/о +13.0 +10.5 85 +10 +10 1012.9 1010.9
03 17.08 ЮЗ 10-13
{13}
н/о н/о +13.1 +11.2 88 +10 +10 1013.3 1011.3
04 17.08 ЮЗ 7-10
{13}
н/о н/о +12.9 +10.8 87 +10 +10 1013.9 1011.9
05 17.08 Ю 7-9
{11}
н/о н/о +13.2 +10.4 83 +11 +11 1013.9 1011.9
06 17.08 Ю 7 20 км 6/1 300 м
[Cb calv Ac cuf Cc]
+13.4 +10.2 81 +11 +11 1014.3 1012.3 +12.6 +13.5
07 17.08 Ю 6-9
{10}
н/о н/о +13.8 +10.8 82 +12 +12 1014.5 1012.5
08 17.08 Ю 8-10
{10}
н/о н/о +14.3 +11.6 84 +12 +12 1014.5 1012.5
09 17.08 Ю 6-8
{11}
40 км 4/1 300 м
[Cu med, cong Ac As Ci fib]
+15.1 +11.9 81 +13 +15 1014.6 1012.6
10 17.08 Ю 6-8
{10}
н/о н/о +15.6 +10.8 73 +14 +14 1014.8 1012.8
11 17.08 Ю 6-7
{8}
н/о н/о +16.0 +9.7 66 +15 +15 1014.5 1012.5
12 17.08 ЮВ 4-5
{11}
50 км 5/1 300 м
[Cu hum Ac As Ci fib]
+15.9 +10.9 72 +15 +19 1014.4 1012.4
13 17.08 В 3-4
{5}
н/о н/о +15.9 +10.2 69 +15 +15 1013.8 1011.8
14 17.08 СВ 5-6
{6}
н/о н/о +14.9 +11.7 81 +13 +13 1013.1 1011.1
15 17.08 СВ 8-9
{9}
>70 км 9/1 300 м
[Cu hum Ac As Ci fib]
+14.8 +10.6 76 +13 +13 1012.6 1010.6
16 17.08 СВ 9-10
{10}
н/о н/о +14.4 +11.2 81 +12 +12 1011.9 1009.9
17 17.08 СВ 9-10
{10}
н/о н/о +14.3 +11.8 85 +12 +12 1011.3 1009.3
18 17.08 СВ 9-11
{11}
>70 км 9/1 300 м
[Cu hum Ac As]
+14.3 +11.8 85 +12 +12 1010.6 1008.6 +13.3 +16.5
19 17.08 СВ 9-10
{11}
н/о н/о +14.5 +12.2 86 +12 +12 1010.2 1008.2
20 17.08 В 9-10
{10}
н/о н/о +14.7 +12.0 84 +12 +12 1009.6 1007.6
21 17.08 В 7-8
{9}
>70 км 10/0
[Ac As]
+15.3 +12.1 81 +14 +14 1009.2 1007.2
22 17.08 ЮВ 8-9
{10}
н/о н/о +16.2 +11.6 74 +15 +15 1009.0 1007.0
23 17.08 ЮВ 8-9
{10}
н/о н/о +15.9 +11.9 77 +14 +14 1008.9 1006.9
00 18.08 ЮВ 8-9
{11}
>70 км 10/0
[Ac As]
+15.6 +12.0 79 +14 +14 1008.4 1006.4
01 18.08 ЮВ 10-11
{11}
н/о н/о +16.1 +11.5 74 +14 +14 1008.1 1006.1
02 18.08 ЮВ 9-10
{11}
н/о н/о +16.1 +11.5 74 +14 +14 1007.9 1005.9
03 18.08 ЮВ 7-9
{12}
н/о н/о +16.0 +11.4 74 +15 +15 1007.4 1005.4
04 18.08 ЮВ 6-7
{9}
н/о н/о +15.3 +11.9 80 +14 +14 1007.3 1005.3
05 18.08 ЮВ 6-8
{9}
н/о н/о +15.4 +11.6 78 +14 +14 1007.2 1005.2
06 18.08 ЮВ 6 >70 км 10/0
[Ac As]
+16.2 +10.7 70 +15 +15 1007.3 1005.3 +14.3 +16.5
07 18.08 ЮВ 5-7
{9}
н/о н/о +15.7 +11.1 74 +15 +15 1007.5 1005.5
08 18.08 ЮВ 6-7
{8}
н/о н/о +15.9 +11.3 74 +15 +15 1007.5 1005.5
09 18.08 ЮВ 6-8
{8}
н/о н/о +16.4 +11.4 72 +15 +15 1007.5 1005.5
10 18.08 ЮВ 8-9
{9}
н/о н/о +16.0 +11.4 74 +14 +14 1007.6 1005.6
11 18.08 ЮВ 6-7
{8}
н/о н/о +16.1 +11.7 75 +15 +15 1007.8 1005.8
12 18.08 ЮВ 5-5
{9}
>70 км 10/0
[Ac As]
+15.2 +12.5 84 +14 +15 1007.9 1005.9
13 18.08 Ю 6-9
{9}
н/о н/о +16.1 +12.1 77 +15 +15 1007.8 1005.8
14 18.08 Ю 4-6
{8}
н/о н/о +16.0 +12.4 79 +15 +15 1007.7 1005.7
15 18.08 Ю 3-4
{5}
>70 км 10/0
[Ac As]
+15.4 +12.2 81 +15 +16 1007.5 1005.5
16 18.08 В 2-2
{4}
н/о н/о +14.7 +12.7 88 +14 +14 1007.2 1005.2
17 18.08 В 2-3
{3}
н/о н/о +14.9 +12.4 85 +15 +15 1007.0 1005.0
18 18.08 В 2-3
{9}
>70 км 10/0
[Ac As]
+14.6 +12.6 88 +14 +14 1006.7 1004.7 +14.5 +16.7
19 18.08 В 5-5
{6}
н/о н/о +14.6 +12.3 86 +13 +13 1006.6 1004.6
20 18.08 СВ 5-6
{6}
н/о н/о +14.7 +12.2 85 +13 +13 1006.3 1004.3
21 18.08 СВ 5-6
{6}
>70 км 9/0
[Ac As]
+14.4 +12.6 89 +13 +13 1005.8 1003.8
22 18.08 В 5-5
{6}
н/о н/о +14.2 +12.6 90 +12 +12 1005.5 1003.5
23 18.08 СВ 4-5
{5}
н/о н/о +14.1 +12.7 91 +13 +13 1005.5 1003.5
00 19.08 В 4-5
{6}
>70 км 6/0
[Ac As]
+14.2 +12.4 89 +13 +13 1005.2 1003.2
01 19.08 В 4-5
{5}
н/о н/о +14.4 +12.3 87 +13 +13 1004.9 1002.9
02 19.08 В 4-4
{5}
н/о н/о +14.3 +12.3 88 +13 +13 1004.7 1002.7
03 19.08 В 3-4
{4}
н/о н/о +14.3 +12.2 87 +13 +13 1004.4 1002.4
04 19.08 В 5-5
{6}
н/о н/о +14.7 +12.0 84 +13 +13 1004.1 1002.1
05 19.08 В 5-6
{6}
н/о н/о +15.4 +10.8 74 +14 +14 1003.8 1001.8
06 19.08 В 4 >70 км 4/0
[Ac As Ci fib]
+15.6 +12.0 79 +15 +15 1003.6 1001.6 +14.0 +15.8
07 19.08 В 2-3
{4}
н/о н/о +16.2 +12.0 76 +16 +16 1003.5 1001.5
08 19.08 СВ 2-3
{4}
н/о н/о +15.6 +12.9 84 +15 +15 1003.3 1001.3
09 19.08 СВ 2-3
{3}
>70 км 5/1 300 м
[Cu hum Ac As Ci fib]
+15.6 +12.4 81 +16 +20 1003.4 1001.4
10 19.08 В 3-4
{4}
н/о н/о +17.1 +11.8 71 +17 +17 1003.1 1001.1
11 19.08 С 3-4
{5}
н/о н/о +15.4 +13.4 88 +15 +15 1002.7 1000.7
12 19.08 СВ 4-5
{5}
>70 км 8/1 300 м
[Cu hum Ac As Ci fib]
+15.1 +13.0 87 +14 +17 1002.4 1000.4
13 19.08 СВ 6-7
{7}
н/о н/о +15.0 +12.5 85 +13 +13 1001.8 999.8
14 19.08 СВ 7-8
{8}
н/о н/о +15.2 +12.0 81 +13 +13 1001.2 999.2
15 19.08 СВ 6-7
{7}
н/о н/о +15.3 +12.3 82 +14 +14 1000.9 998.9
16 19.08 СВ 6-6
{7}
н/о н/о +14.8 +12.7 87 +13 +13 1000.2 998.2
17 19.08 СВ 6-6
{7}
н/о н/о +14.6 +13.2 91 +13 +13 999.6 997.6

 

Местоположение метеостанции Myken (Норвегия): широта 66.77 долгота 12.48 высота над уровнем моря 17 м.

В архиве по умолчанию представлена погода в Myken за последнюю неделю. Архивные данные за месяц целиком и за предыдущие месяцы, начиная с января 2011 года, Вы можете получить, выбрав интересующий диапазон дат из раскрывающегося списка и нажав кнопку "Ввод!".

Внимание! Время в таблицах - всемирное. Для получения местного времени необходимо прибавить поправку, которая в Myken равна 1 ч.

Смотрите также архив погоды в соседних городах и на ближайших метеорологических станциях:

Погода в Solvaer III (Норвегия) (45 км)
Погода в Reipa (Норвегия) (53 км)
Погода в Rost Flyplass (Норвегия) (85 км)
Погода в Skamdal (Норвегия) (86 км)
Погода в Seljelia (Норвегия) (86 км)
Погода в Sandnessjoen Lufthavn (Норвегия) (90 км)
Погода в Mo i Rana Lufthavn (Норвегия) (93 км)
Погода в Helligvaer II (Норвегия) (93 км)
Погода в Vaeroy Heliport (Норвегия) (98 км)
Погода в Bodo VI (Норвегия) (99 км)

Пояснения к столбцам:

Ветер - указаны скорость ветра в м/с - средняя за 10 мин, порывы в срок и между сроками (в фигурных скобках) и направление, откуда дует ветер: С - северный, СВ - северо-восточный, В - восточный, ЮВ - юго-восточный, Ю - южный, ЮЗ - юго-западный, З - западный, СЗ - северо-западный.
Видимость - горизонтальная дальность видимости в метрах или километрах. При видимости от 1 до 10 км при отсутствии осадков обычно наблюдается дымка, при ухудшении видимости до 1 км и менее - туман. В сухую погоду видимость может ухудшаться дымом, пылью или мглою.
Явления - указаны атмосферные явления, наблюдавшиеся в срок или в последний час перед сроком; фигурными скобками обозначены явления, наблюдавшиеся между сроками (за 1-3 часа до срока); квадратными скобками обозначены град или гололедные отложения с указанием их диаметра в мм.
Облачность - указаны через наклонную черту общая и нижняя облачность в баллах и высота нижней границы облаков в метрах; квадратными скобками обозначены формы облаков: Ci - перистые, Cs - перисто-слоистые, Cc - перисто-кучевые, Ac - высококучевые, As - высокослоистые, Sc - слоисто-кучевые, Ns - слоисто-дождевые, Cu - кучевые, Cb - кучево-дождевые. Подробнее классификацию облаков см. в Атласе облаков (PDF).
T - Температура воздуха - температура, измеренная на высоте 2 м над землей.
Td - Температура точки росы - температура, при понижении до которой содержащийся в воздухе водяной пар достигнет насыщения.
f - Относительная влажность воздуха - влажноcть воздуха, измеренная на высоте 2 м над землей.
Te - Эффективная температура - температура, которую ощущает одетый по сезону человек в тени. Характеристика душности погоды. При расчете учитывается влияние влажности воздуха и скорости ветра на теплоощущения человека.
Tes - Эффективная температура на солнце - температура, которую ощущает человек, с поправкой на солнечный нагрев. Характеристика знойности погоды. Зависит от высоты солнца над горизонтом, облачности и скорости ветра. Ночью, в пасмурную погоду, а также при ветре 12 м/с и более поправка равна нулю.
P - Атмосферное давление - приведенное к уровню моря атмосферное давление.
Po - Атмосферное давление - измеренное на уровне метеостанции атмосферное давление.
Tmin - Минимальная температура - минимум температуры воздуха на высоте 2 м над землей.
Tmax - Максимальная температура - максимум температуры воздуха на высоте 2 м над землей.
R - Количество осадков - Количество выпавших осадков за период времени, мм. При наведении курсора мыши на число - период времени, за который выпало указанное количество осадков.
R24 - Количество осадков - Количество выпавших осадков за 24 часа, мм.
S - Снежный покров - Высота снежного покрова, см. При наведении курсора мыши на число - состояние снежного покрова и степень покрытия местности в баллах.